KGED

Details ICAO KGED (GED)
Name Sussex Co
Region United States
Timezone America/New_York (UTC-4.0)
Plans Departing 11
Arriving 8
Stats Elevation 50 ft / 15 m (AMSL)
Location 38.687132° -75.358397°
Runways 2
Magnetic Variation 11.736° W
Sunrise 2018-05-27 09:42:22 UTC / 2018-05-27 05:42:22 Local
Sunset 2018-05-28 00:17:44 UTC / 2018-05-27 20:17:44 Local
Advertisement - Login to hide

Runways

ID Width Length Bearing (true) Bearing (mag) Surface Threshold Offset Overrun Length
04 151 ft / 46 m 5,003 ft / 1,525 m 32.81° 44.55° Asphalt 0 ft / 0 m 0 ft / 0 m
10 75 ft / 23 m 3,112 ft / 949 m 92.80° 104.54° Asphalt 0 ft / 0 m 30 ft / 9 m
22 151 ft / 46 m 5,003 ft / 1,525 m 212.81° 224.55° Asphalt 0 ft / 0 m 0 ft / 0 m
28 75 ft / 23 m 3,112 ft / 949 m 272.80° 284.54° Asphalt 0 ft / 0 m 30 ft / 9 m

Map

Weather


0- 5 10 15 20 25 30 35+ Temperature / ° C

Clouds and Precipitation
Forecast for 2018-05-28 00:00 UTC. Updated 3 hours ago

Ground ~20,000 ft ~40,000 ft Winds

METAR

KGED 280154Z AUTO 06011KT 5SM RA BR BKN006 BKN040 OVC070 15/14 A3005 RMK AO2 LTG DSNT E-S TSE0059 SLP176 P0016 T01500144 $

TAF

Not found

Frequencies

Recorded 118.37 MHz ASOS
Approach 132.42 MHz DOVER APP/DEP
Unicom 123.00 MHz CTAF/UNICOM
Warning: Do not use this data for real-world aviation or navigation. No guarantee of current accuracy is given.